Location: Mt. Bigelow
(32.4165°N, 110.7345°W)
Time: 13:51:52
(UTC-07:00)

Envisat - Visible Passes

Search period start: 22 February 2018 00:00
Search period end: 04 March 2018 00:00
Orbit: 764 x 766 km, 98.2° (Epoch: 22 February)

Date Brightness Start Highest point End Pass type
(mag) Time Alt. Az. Time Alt. Az. Time Alt. Az.
22 Feb 3.1 19:35:13 10° SSE 19:40:05 50° ENE 19:44:59 10° N visible
22 Feb 5.7 21:16:39 10° SW 21:19:18 14° W 21:21:58 10° WNW visible
23 Feb 4.2 18:59:52 10° ESE 19:03:38 21° ENE 19:07:24 10° NNE visible
23 Feb 4.4 20:37:47 10° SSW 20:42:22 35° W 20:46:59 10° NNW visible
24 Feb 2.9 20:00:32 10° SSE 20:05:36 87° WSW 20:10:42 10° NNW visible
25 Feb 3.4 19:24:21 10° SE 19:29:00 39° ENE 19:33:41 10° N visible
25 Feb 5.4 21:04:36 10° SW 21:08:05 19° W 21:11:37 10° NW visible
26 Feb 4.4 18:49:28 10° ESE 18:52:37 17° ENE 18:55:45 10° NNE visible
26 Feb 3.9 20:26:23 10° S 20:31:12 45° W 20:36:04 10° NNW visible
27 Feb 2.8 19:49:27 10° SSE 19:54:29 73° ENE 19:59:32 10° N visible
28 Feb 3.7 19:13:35 10° SE 19:17:57 30° ENE 19:22:19 10° N visible
28 Feb 5.0 20:52:49 10° SSW 20:56:53 24° W 21:00:58 10° NW visible
01 Mar 3.4 20:15:04 10° S 20:20:03 60° W 20:25:03 10° NNW visible
02 Mar 3.0 19:38:27 10° SSE 19:43:22 56° ENE 19:48:20 10° N visible
02 Mar 5.9 21:20:29 10° WSW 21:22:40 13° W 21:24:50 10° WNW visible
03 Mar 4.1 19:02:56 10° ESE 19:06:54 24° ENE 19:10:52 10° NNE visible
03 Mar 4.6 20:41:14 10° SSW 20:45:42 31° W 20:50:11 10° NW visible
